[TLELIST] Archives

 

Current TLEs

November 18th 2006 PDT

HST 1 20580U 90037B 06321.51852632 .00000480 00000-0 24557-4 0 7412 2 20580 028.4669 130.2853 0003273 010.7074 349.3604 15.00132801708148 ISS (ZARYA) 1 25544U 98067A 06322.53638256 .00017666 00000-0 10424-3 0 891 2 25544 051.6320 111.9025 0011255 230.2377 210.2647 15.78190320457516 CXO 1 25867U 99040B 06321.12500000 +.00000473 +00000-0 +00000-0 0 00018 2 25867 060.6249 093.7673 5951132 287.9027 359.5566 00.37805149001459 ____________________________________________________________________ These 2-Line ...Continue Reading

Current TLEs

November 17th 2006 PDT

HST 1 20580U 90037B 06319.85527371 .00000525 00000-0 28052-4 0 7408 2 20580 028.4670 141.1289 0003352 352.8930 007.1608 15.00131995707890 ISS (ZARYA) 1 25544U 98067A 06321.52141316 .00018102 00000-0 10689-3 0 805 2 25544 051.6324 117.1513 0011255 226.0685 204.0591 15.78153572457354 CXO 1 25867U 99040B 06321.12500000 +.00000473 +00000-0 +00000-0 0 00018 2 25867 060.6249 093.7673 5951132 287.9027 359.5566 00.37805149001459 ____________________________________________________________________ These 2-Line ...Continue Reading

Current TLEs

November 16th 2006 PDT

HST 1 20580U 90037B 06319.85527371 .00000525 00000-0 28052-4 0 7408 2 20580 028.4670 141.1289 0003352 352.8930 007.1608 15.00131995707890 ISS (ZARYA) 1 25544U 98067A 06320.50763567 .00016514 00000-0 98030-4 0 701 2 25544 051.6324 122.3860 0011518 221.1678 205.5040 15.78113309457198 CXO 1 25867U 99040B 06318.45833333 +.00000416 +00000-0 +00000-0 0 00004 2 25867 060.6119 093.8165 5948923 287.9678 356.4588 00.37804654001447 ____________________________________________________________________ These 2-Line ...Continue Reading

Current TLEs

November 15th 2006 PDT

HST 1 20580U 90037B 06317.92589969 +.00000740 +00000-0 +44948-4 0 07406 2 20580 028.4670 153.7092 0003430 331.0336 029.0065 15.00131222707609 ISS (ZARYA) 1 25544U 98067A 06319.30347627 .00018154 00000-0 10753-3 0 631 2 25544 051.6324 128.6062 0011461 215.6239 205.4412 15.78078395457006 CXO 1 25867U 99040B 06318.45833333 +.00000416 +00000-0 +00000-0 0 00004 2 25867 060.6119 093.8165 5948923 287.9678 356.4588 00.37804654001447 ____________________________________________________________________ These 2-Line ...Continue Reading

Current TLEs

November 14th 2006 PDT

HST 1 20580U 90037B 06317.85936958 .00000768 00000-0 47129-4 0 7394 2 20580 028.4669 154.1433 0003451 330.6003 029.4392 15.00131245707590 ISS (ZARYA) 1 25544U 98067A 06318.54043134 .00020216 00000-0 11938-3 0 584 2 25544 051.6311 132.5489 0011390 213.0832 190.1818 15.78057447456881 CXO 1 25867U 99040B 06315.83333333 +.00000351 +00000-0 +00000-0 0 09993 2 25867 060.6033 093.8684 5945978 288.0379 359.0389 00.37801660001436 ____________________________________________________________________ These 2-Line ...Continue Reading

Current TLEs

November 13th 2006 PDT

HST 1 20580U 90037B 06315.92999472 +.00000557 +00000-0 +30606-4 0 07501 2 20580 028.4673 166.7222 0003501 308.6594 051.3683 15.00128641707308 ISS (ZARYA) 1 25544U 98067A 06317.52898877 .00019935 00000-0 11796-3 0 514 2 25544 051.6322 137.7778 0011734 208.3329 205.1232 15.78018237456725 CXO 1 25867U 99040B 06315.83333333 +.00000351 +00000-0 +00000-0 0 09993 2 25867 060.6033 093.8684 5945978 288.0379 359.0389 00.37801660001436 ____________________________________________________________________ These 2-Line ...Continue Reading

Current TLEs

November 12th 2006 PDT

HST 1 20580U 90037B 06315.92999472 .00000557 00000-0 30606-4 0 7387 2 20580 028.4673 166.7222 0003501 308.6594 051.3683 15.00128641707308 ISS (ZARYA) 1 25544U 98067A 06316.51396007 .00023979 00000-0 14125-3 0 444 2 25544 051.6318 143.0219 0011670 204.8705 198.5244 15.77983441456565 CXO 1 25867U 99040B 06315.83333333 +.00000351 +00000-0 +00000-0 0 09993 2 25867 060.6033 093.8684 5945978 288.0379 359.0389 00.37801660001436 ____________________________________________________________________ These 2-Line ...Continue Reading

Current TLEs

November 11th 2006 PDT

HST 1 20580U 90037B 06314.86551095 .00000550 00000-0 30015-4 0 7370 2 20580 028.4672 173.6622 0003567 297.0056 063.0173 15.00127747707146 ISS (ZARYA) 1 25544U 98067A 06314.82976852 .00015840 00000-0 95107-4 0 334 2 25544 051.6334 151.7188 0012021 196.2992 353.4063 15.77888743456297 CXO 1 25867U 99040B 06313.16666667 +.00000310 +00000-0 +00000-0 0 09980 2 25867 060.5944 093.9110 5943469 288.1298 355.9264 00.37799566001422 ____________________________________________________________________ These 2-Line ...Continue Reading

Current TLEs

November 10th 2006 PDT

HST 1 20580U 90037B 06312.93613305 +.00000580 +00000-0 +32360-4 0 07478 2 20580 028.4675 186.2419 0003595 275.8898 084.1281 15.00126446706858 ISS (ZARYA) 1 25544U 98067A 06314.49373250 .00015614 00000-0 93863-4 0 314 2 25544 051.6332 153.4542 0012035 195.0983 244.4959 15.77876125456249 CXO 1 25867U 99040B 06313.16666667 +.00000310 +00000-0 +00000-0 0 09980 2 25867 060.5944 093.9110 5943469 288.1298 355.9264 00.37799566001422 ____________________________________________________________________ These 2-Line ...Continue Reading

Current TLEs

November 9th 2006 PDT

PUBLIC "-//W3C//DTD XHTML 1.0 Transitional//EN" "http://www.w3.org/TR/xhtml1/DTD/xhtml1-transitional.dtd"> ____________________________________________________________________ These 2-Line Elements (TLEs) are direct from DoD/ USSTRATCOM/ US Space Command with permission. Updates are provided automatically daily. By receiving this email, you agree not to transfer any data or information received under this agreement, including the analysis of tracking data, to any other entity without the ...Continue Reading
  • This mailing list is a public mailing list - anyone may join or leave, at any time.
  • This mailing list is announce-only.

International Space Station (ISS) / Hubble Space Telescope (HST) / Chandra X-Ray Observatory Orbital Data via EMAIL

Privacy Policy:

Private list